This demonstration page uses our WeatherBlox Daily Observations layout. Learn more.

Left ArrowRight Arrow

44.8408, -93.29828

Hourly Observations for May 23, 2016

Temp ( °F °C ) Dew Point ( °F °C ) Humidity (%) Winds ( mph kmh ) Pressure ( in mb ) Visibility ( mi km ) Precip ( " mm )
12:53 am 00:53 Mostly Clear 71 21.7 40 4.4 32 32 S 15 24 29.82 1010 10 16 0.00 0.00
1:53 am 01:53 Mostly Clear 70 21.1 41 5 35 35 S 13 20 29.81 1010 10 16 0.00 0.00
2:53 am 02:53 Mostly Clear 70 21.1 43 6.1 38 38 S 17 28 29.81 1009 10 16 0.00 0.00
3:53 am 03:53 Partly Cloudy 68 20 43 6.1 40 40 SSE 10 17 29.80 1009 10 16 0.00 0.00
4:53 am 04:53 Mostly Cloudy 66 18.9 44 6.7 45 45 SSE 12 19 29.78 1009 10 16 0.00 0.00
5:53 am 05:53 Mostly Cloudy 68 20 46 7.8 45 45 S 14 22 29.80 1009 10 16 0.00 0.00
6:53 am 06:53 Mostly Cloudy 69 20.6 49 9.4 49 49 S 16 26 29.79 1009 10 16 0.00 0.00
7:53 am 07:53 Cloudy 69 20.6 51 10.6 53 53 S 12 19 29.80 1009 10 16 0.00 0.00
8:53 am 08:53 Cloudy 72 22.2 53 11.7 52 52 SSW 13 20 29.79 1009 10 16 0.00 0.00
9:53 am 09:53 Cloudy 73 22.8 54 12.2 51 51 S 13 20 29.79 1009 10 16 0.00 0.00
10:53 am 10:53 Cloudy 73 22.8 56 13.3 55 55 SSE 17 28 29.78 1008 10 16 0.00 0.03
11:53 am 11:53 Mostly Cloudy 75 23.9 58 14.4 55 55 SSE 17 28 29.73 1007 10 16 0.00 0.03
12:53 pm 12:53 Mostly Cloudy 78 25.6 58 14.4 50 50 SSE 20 31 29.72 1006 10 16 0.00 0.00
1:53 pm 13:53 Mostly Cloudy 83 28.3 58 14.4 43 43 SSW 20 31 29.73 1007 10 16 0.00 0.00
2:53 pm 14:53 Cloudy 81 27.2 59 15 47 47 S 17 28 29.73 1007 10 16 0.00 0.00
3:53 pm 15:53 Cloudy 79 26.1 59 15 50 50 SSW 20 31 29.72 1007 10 16 0.00 0.00
4:53 pm 16:53 Cloudy 77 25 59 15 54 54 SSW 15 24 29.76 1008 10 16 0.00 0.00
5:53 pm 17:53 Cloudy 75 23.9 60 15.6 60 60 S 17 28 29.75 1007 10 16 0.00 0.00
6:53 pm 18:53 Cloudy 75 23.9 60 15.6 60 60 SSW 13 20 29.72 1007 10 16 0.00 0.00
7:53 pm 19:53 Cloudy 74 23.3 58 14.4 57 57 S 15 24 29.73 1007 10 16 0.00 0.00
8:36 pm 20:36 Cloudy with Nearby Thunderstorms 72 22 61 16 69 69 SSW 13 20 29.71 1006 6 10 0.00 0.00
8:53 pm 20:53 Cloudy 70 21.1 61 16.1 73 73 SW 6 9 29.74 1007 10 16 0.00 0.03
9:53 pm 21:53 Mostly Cloudy 67 19.4 59 15 76 76 NNE 6 9 29.79 1009 10 16 0.00 0.00
10:53 pm 22:53 Mostly Cloudy 66 18.9 59 15 78 78 NE 7 11 29.81 1009 10 16 0.00 0.00
11:23 pm 23:23 Cloudy with Light Rain 66 18.9 59 15 78 78 E 9 15 29.83 1010 10 16 0.00 0.03
11:53 pm 23:53 Cloudy with Light Rain 66 18.9 60 15.6 81 81 E 9 15 29.81 1009 10 16 0.00 0.03

Powered by AerisWeather